Regional Weather Roundup
Issued by NWS

Home | Current Version | Previous Version | Graphics & Text | Print | Product List | Glossary On
Versions: 1 2 3 4 5 6 7 8 9 10 11 12 13 14 15 16 17 18 19 20 21 22 23 24 25 26 27 28 29 30 31 32 33 34 35 36 37 38 39 40 41 42 43 44 45 46 47 48 49 50
000
ASUS43 KLMK 200210
RWRKY
KENTUCKY REGIONAL WEATHER ROUNDUP
NATIONAL WEATHER SERVICE LOUISVILLE KY
1000 PM EDT SAT AUG 19 2017

NOTE "FAIR" INDICATES FEW OR NO CLOUDS BELOW 12,000 FEET
WITH NO SIGNIFICANT WEATHER AND/OR OBSTRUCTIONS TO VISIBILITY.

KYZ001>023-026-027-061>063-070>075-200300-
WESTERN AND SOUTH CENTRAL KENTUCKY

CITY           SKY/WX    TMP DP  RH WIND       PRES   REMARKS
PADUCAH        CLEAR     76  70  82 SW5       29.94R
HENDERSON      CLEAR     72  71  97 CALM      29.95R
OWENSBORO      CLEAR     76  70  82 S3        29.96R
HOPKINSVILLE   CLEAR     80  70  70 SE6       29.97R
BOWLING GREEN  CLEAR     79  69  71 SE3       29.98R
GLASGOW        CLEAR     73  68  86 CALM      29.99R
$$

KYZ024-025-028>034-038-045-046-053-200300-
NORTH CENTRAL KENTUCKY

CITY           SKY/WX    TMP DP  RH WIND       PRES   REMARKS
LOUISVILLE/SDF PTCLDY    83  67  58 SW3       29.96R
LOUISVILLE/LOU CLEAR     78  68  71 CALM      29.97R
FORT KNOX      CLEAR     74  70  89 CALM      29.96R
$$

KYZ035>037-039>044-047>052-055>060-089>105-200300-
NORTHEAST KENTUCKY

CITY           SKY/WX    TMP DP  RH WIND       PRES   REMARKS
LEXINGTON      CLEAR     77  66  68 S5        30.00R
COVINGTON      PTCLDY    76  69  79 W3        29.98R
FRANKFORT      CLEAR     76  67  73 CALM      29.98R
$$

KYZ054-064>069-076>088-106>120-200300-
SOUTHEAST KENTUCKY

CITY           SKY/WX    TMP DP  RH WIND       PRES   REMARKS
JACKSON        CLEAR     76  66  71 CALM      30.03R
LONDON         CLEAR     73  69  87 CALM      30.03R
SOMERSET       CLEAR     70  68  94 CALM      30.03R
MIDDLESBORO    CLEAR     73  69  88 CALM      30.05R
MONTICELLO     CLEAR     68  67  96 CALM      30.04R
$$





USA.gov is the U.S. government's official web portal to all federal, state and local government web resources and services.